Location: *
(40.4270°N, 9.4940°E)
Time: 21:25:50
(UTC+02:00)

Okean 2 - Visible Passes

Search period start: 16 April 2014 00:00
Search period end: 26 April 2014 00:00
Orbit: 572 x 588 km, 82.5° (Epoch: 15 April)

Date Brightness Start Highest point End Pass type
(mag) Time Alt. Az. Time Alt. Az. Time Alt. Az.
21 Apr 6.6 00:54:31 11° NNE 00:54:31 11° NNE 00:54:45 10° NNE visible
22 Apr 6.5 00:59:26 13° N 00:59:26 13° N 00:59:53 10° N visible
23 Apr 6.5 01:04:20 14° N 01:04:20 14° N 01:04:56 10° N visible
24 Apr 6.4 01:09:13 14° NNW 01:09:13 14° NNW 01:09:54 10° N visible
25 Apr 6.4 01:14:05 14° NNW 01:14:05 14° NNW 01:14:46 10° NNW visible
25 Apr 6.3 23:42:37 11° NNE 23:42:37 11° NNE 23:42:53 10° NNE visible
